Location: Unspecified
(0.0000°N, 0.0000°E)
Time: 00:08:21
(UTC+00:00)

A-11 Canister half - Pass Details

Date: 12 February 2023
Orbit: 1526 x 1682 km, 47.3° (Epoch: 29 March)

Event Time Altitude Azimuth Distance (km) Brightness Sun altitude
Rises 01:21:16 0° 237° (WSW) 4,811 - -68.4°
Reaches altitude 10° 01:24:40 10° 244° (WSW) 3,801 - -67.7°
Maximum altitude 01:33:25 40° 310° (NW) 2,157 - -66.0°
Drops below altitude 10° 01:41:59 10° 17° (NNE) 3,698 - -64.3°
Sets 01:45:17 0° 24° (NNE) 4,669 - -63.6°
